{"data":{"norad_id":69663,"epoch":"2026-09-19T20:54:06.167808Z","epoch_age_seconds":76015,"freshness":"FRESH","line1":"1 69663U 26143Q   26262.87090472  .00010979  00000+0  34181-3 0  9996","line2":"2 69663  97.2843 306.0324 0000591 124.7618 235.3680 15.33455062 15059","mean_motion":15.33455062,"eccentricity":5.91e-5,"inclination_deg":97.2843,"raan_deg":306.0324,"arg_perigee_deg":124.7618,"mean_anomaly_deg":235.368,"bstar":0.00034181,"rev_number":1505,"period_min":93.905588476906,"perigee_km":465.10877748003,"apogee_km":465.91769693807,"semimajor_km":6843.650237209,"source":"CELESTRAK","updated_at":"2026-09-20T09:00:44.249682Z"}}